Location: Bidwell Hollow
(37.7387°N, 90.1707°W)
Time: 00:43:33
(UTC+00:00)

Courier 1B Rocket - All Passes

Search period start: 12 May 2026 00:00
Search period end: 22 May 2026 00:00
Orbit: 920 x 1201 km, 28.3° (Epoch: 11 May)

Date Brightness Start Highest point End Pass type
(mag) Time Alt. Az. Time Alt. Az. Time Alt. Az.
12 May - 14:12:27 10° SSW 14:16:55 20° SSE 14:21:33 10° ESE daylight
12 May - 16:03:48 10° SW 16:09:34 35° S 16:15:40 10° ESE daylight
12 May - 17:56:28 10° WSW 18:02:28 35° S 18:08:52 10° ESE daylight
12 May - 19:50:08 10° WSW 19:55:21 22° SSW 20:00:49 10° SSE daylight
13 May - 13:12:40 10° S 13:16:00 15° SSE 13:19:24 10° ESE daylight
13 May - 15:03:05 10° SW 15:08:31 30° SSE 15:14:12 10° ESE daylight
13 May - 16:55:26 10° WSW 17:01:20 37° S 17:07:37 10° ESE daylight
13 May - 18:48:41 10° WSW 18:54:13 27° SSW 19:00:05 10° SE daylight
13 May - 20:44:31 10° SW 20:46:58 12° SSW 20:49:28 10° S daylight
14 May - 14:02:32 10° SW 14:07:32 25° SSE 14:12:41 10° ESE daylight
14 May - 15:54:29 10° WSW 16:00:14 36° S 16:06:19 10° ESE daylight
14 May - 17:47:26 10° WSW 17:53:06 31° SSW 17:59:07 10° SE daylight
14 May - 19:41:49 10° WSW 19:45:53 16° SSW 19:50:05 10° SSE daylight
15 May - 13:02:12 10° SSW 13:06:35 20° SSE 13:11:00 10° ESE daylight
15 May - 14:53:38 10° SW 14:59:11 34° S 15:04:59 10° ESE daylight
15 May - 16:46:19 10° WSW 16:52:01 34° S 16:58:03 10° SE daylight
15 May - 18:40:00 10° WSW 18:44:48 21° SSW 18:49:50 10° SSE daylight
16 May - 12:02:20 10° S 12:05:39 15° SSE 12:08:59 10° ESE daylight
16 May - 13:52:52 10° SW 13:58:11 30° SSE 14:03:37 10° ESE daylight
16 May - 15:45:16 10° WSW 15:50:57 35° S 15:56:52 10° ESE daylight
16 May - 17:38:32 10° WSW 17:43:44 25° SSW 17:49:11 10° SE daylight
16 May - 19:34:59 10° SW 19:36:24 11° SSW 19:37:50 10° SSW daylight
17 May - 11:04:12 10° SSE 11:04:45 10° SSE 11:05:18 10° SSE daylight
17 May - 12:52:15 10° SW 12:57:13 25° SSE 13:02:12 10° ESE daylight
17 May - 14:44:17 10° WSW 14:49:54 35° S 14:55:41 10° ESE daylight
17 May - 16:37:18 10° WSW 16:42:41 29° SSW 16:48:20 10° SE daylight
17 May - 18:31:49 10° WSW 18:35:22 15° SSW 18:39:01 10° S daylight
18 May - 11:51:49 10° SSW 11:56:15 20° SSE 12:00:39 10° ESE daylight
18 May - 13:43:23 10° SW 13:48:53 33° S 13:54:28 10° ESE daylight
18 May - 15:36:08 10° WSW 15:41:38 33° S 15:47:21 10° SE daylight
18 May - 17:29:55 10° WSW 17:34:20 19° SSW 17:38:55 10° SSE daylight
19 May - 10:51:47 10° S 10:55:19 15° SSE 10:58:48 10° ESE daylight
19 May - 12:42:33 10° SW 12:47:53 30° S 12:53:12 10° ESE daylight
19 May - 14:35:04 10° WSW 14:40:37 34° S 14:46:18 10° ESE daylight
19 May - 16:28:25 10° WSW 16:33:20 24° SSW 16:38:25 10° SE daylight
20 May - 09:52:50 10° SSE 09:54:22 11° SSE 09:55:54 10° SE visible
20 May - 11:41:49 10° SW 11:46:53 25° SSE 11:51:54 10° ESE daylight
20 May - 13:34:00 10° WSW 13:39:36 35° S 13:45:13 10° ESE daylight
20 May - 15:27:07 10° WSW 15:32:20 28° SSW 15:37:41 10° SE daylight
20 May - 17:21:54 10° SW 17:24:56 14° SSW 17:28:02 10° S daylight
21 May - 10:41:16 10° SSW 10:45:55 21° SSE 10:50:28 10° ESE daylight
21 May - 12:33:01 10° WSW 12:38:35 33° S 12:44:05 10° ESE daylight
21 May - 14:25:54 10° WSW 14:31:20 32° S 14:36:49 10° SE daylight
21 May - 16:19:50 10° WSW 16:23:57 18° SSW 16:28:10 10° SSE daylight
